Location: Glums�
(55.3568°N, 11.6856°E)
Time: 17:44:27
(UTC+00:00)

STARLINK-1353 - Pass Details

Date: 07 June 2020
Orbit: 531 x 535 km, 53.0° (Epoch: 04 July)

Event Time Altitude Azimuth Distance (km) Brightness Sun altitude
Rises 00:31:08 0° 268° (W) 2,681 6.9 -10.1°
Reaches altitude 10° 00:33:22 10° 265° (W) 1,791 6.0 -10.0°
Maximum altitude 00:37:23 62° 185° (S) 604 3.5 -9.8°
Drops below altitude 10° 00:41:24 10° 104° (ESE) 1,792 6.3 -9.6°
Sets 00:43:38 0° 101° (ESE) 2,683 7.3 -9.5°
